FW5335 Weather Reports


Display with metric or nautical units.
time (UTC)temp
F
wind
direction
speed
MPH
gust
MPH
rain 1hr
in
rain 24hr
in
rain mn
in
humidity
%
barometer
mb
20210623155016 69 338 8.0 13.0 0.00 0.00 0.00 48 1024.0
20210623154016 69 338 7.0 12.0 0.00 0.00 0.00 48 1024.1
20210623153016 69 338 8.0 15.0 0.00 0.00 0.00 48 1024.2
20210623152016 69 338 9.0 15.0 0.00 0.00 0.00 46 1024.1
20210623151016 70 0 7.0 12.0 0.00 0.00 0.00 46 1024.3
20210623150016 69 338 7.0 13.0 0.00 0.00 0.00 46 1024.4
20210623145021 71 315 7.0 12.0 0.00 0.00 0.00 44 1024.4
20210623144016 71 338 5.0 10.0 0.00 0.00 0.00 44 1024.5
20210623143016 71 0 7.0 12.0 0.00 0.00 0.00 45 1024.4
20210623142016 71 23 8.0 13.0 0.00 0.00 0.00 45 1024.5
20210623141017 69 338 5.0 12.0 0.00 0.00 0.00 45 1024.6
20210623140016 69 315 7.0 12.0 0.00 0.00 0.00 46 1024.5
20210623135016 69 0 4.0 9.0 0.00 0.00 0.00 47 1024.6
20210623134016 70 315 7.0 12.0 0.00 0.00 0.00 44 1024.7
20210623133017 70 270 6.0 11.0 0.00 0.00 0.00 48 1024.7
20210623132017 69 315 6.0 10.0 0.00 0.00 0.00 51 1024.7
20210623131016 69 338 7.0 13.0 0.00 0.00 0.00 48 1024.9
20210623130016 69 315 6.0 13.0 0.00 0.00 0.00 49 1024.9
20210623125016 68 315 7.0 13.0 0.00 0.00 0.00 51 1025.0
20210623124016 68 315 9.0 14.0 0.00 0.00 0.00 51 1025.0
20210623123016 69 315 7.0 11.0 0.00 0.00 0.00 50 1024.9
20210623122016 70 315 5.0 10.0 0.00 0.00 0.00 48 1025.0
20210623121016 70 338 3.0 8.0 0.00 0.00 0.00 45 1025.1
20210623120016 69 315 5.0 9.0 0.00 0.00 0.00 47 1025.0
20210623115017 69 338 6.0 11.0 0.00 0.00 0.00 46 1025.1
20210623114016 69 315 5.0 9.0 0.00 0.00 0.00 46 1025.0
20210623113016 69 23 2.0 7.0 0.00 0.00 0.00 45 1025.2
20210623112016 69 315 5.0 11.0 0.00 0.00 0.00 44 1025.2
20210623111016 68 338 7.0 11.0 0.00 0.00 0.00 43 1025.2
20210623110016 69 315 5.0 11.0 0.00 0.00 0.00 46 1025.2
20210623105016 68 0 4.0 9.0 0.00 0.00 0.00 51 1025.3
20210623104016 67 293 3.0 5.0 0.00 0.00 0.00 51 1025.2
20210623103016 68 338 4.0 8.0 0.00 0.00 0.00 52 1025.3
20210623102016 68 338 5.0 10.0 0.00 0.00 0.00 50 1025.1
20210623101016 68 90 4.0 8.0 0.00 0.00 0.00 51 1025.2
20210623100016 67 180 3.0 5.0 0.00 0.00 0.00 51 1025.3
20210623095015 68 0 4.0 8.0 0.00 0.00 0.00 51 1025.4
20210623094017 67 45 5.0 10.0 0.00 0.00 0.00 50 1025.5
20210623093016 66 113 4.0 9.0 0.00 0.00 0.00 52 1025.5
20210623092016 67 68 3.0 7.0 0.00 0.00 0.00 49 1025.5
20210623091015 66 0 3.0 8.0 0.00 0.00 0.00 59 1025.6
20210623090016 65 338 3.0 5.0 0.00 0.00 0.00 61 1025.6
20210623085016 64 338 1.0 3.0 0.00 0.00 0.00 63 1025.7
20210623084016 63 338 2.0 5.0 0.00 0.00 0.00 65 1025.6
20210623083016 63 338 2.0 4.0 0.00 0.00 0.00 65 1025.4
20210623082015 64 338 2.0 5.0 0.00 0.00 0.00 63 1025.5
20210623081016 63 338 2.0 4.0 0.00 0.00 0.00 64 1025.9
20210623080015 64 23 1.0 3.0 0.00 0.00 0.00 64 1025.7
20210623075015 63 23 3.0 4.0 0.00 0.00 0.00 66 1026.0
20210623074015 62 315 3.0 6.0 0.00 0.00 0.00 68 1026.0
20210623073015 62 23 1.0 2.0 0.00 0.00 0.00 69 1026.0
20210623072015 61 270 2.0 6.0 0.00 0.00 0.00 70 1026.0
20210623071016 61 270 1.0 3.0 0.00 0.00 0.00 71 1026.0
20210623070015 60 270 2.0 4.0 0.00 0.00 0.00 72 1026.0
20210623065015 59 270 2.0 4.0 0.00 0.00 0.00 73 1025.8
20210623064015 58 270 2.0 3.0 0.00 0.00 0.00 75 1025.7
20210623063015 57 270 2.0 3.0 0.00 0.00 0.00 77 1025.7
20210623062015 56 270 1.0 2.0 0.00 0.00 0.00 80 1025.7
20210623061015 55 270 2.0 3.0 0.00 0.00 0.00 82 1025.6
20210623060015 54 270 2.0 4.0 0.00 0.00 0.00 84 1025.7
20210623055015 52 270 1.0 3.0 0.00 0.00 0.00 86 1025.7
20210623054015 51 270 2.0 4.0 0.00 0.00 0.00 87 1025.8
20210623053015 50 0.0 1.0 0.00 0.00 0.00 90 1025.7
20210623052015 48 270 1.0 2.0 0.00 0.00 0.00 91 1025.5
20210623051017 47 0.0 1.0 0.00 0.00 0.00 91 1025.6
20210623050015 47 270 1.0 2.0 0.00 0.00 0.00 92 1025.5
20210623045017 46 270 1.0 2.0 0.00 0.00 0.00 91 1025.5
20210623044017 46 0.0 1.0 0.00 0.00 0.00 90 1025.5
20210623043018 46 270 1.0 2.0 0.00 0.00 0.00 90 1025.4
20210623042017 46 0.0 1.0 0.00 0.00 0.00 90 1025.3
20210623041018 46 270 1.0 2.0 0.00 0.00 0.00 90 1025.3
20210623040018 46 270 1.0 3.0 0.00 0.00 0.00 91 1025.3
20210623035017 45 270 1.0 3.0 0.00 0.00 0.00 89 1025.3
20210623034017 45 270 2.0 3.0 0.00 0.00 0.00 89 1025.2
20210623033018 46 270 1.0 3.0 0.00 0.00 0.00 89 1025.3
20210623032017 46 270 1.0 2.0 0.00 0.00 0.00 89 1025.1
20210623031017 46 270 1.0 3.0 0.00 0.00 0.00 89 1025.2
20210623030018 46 0.0 1.0 0.00 0.00 0.00 89 1025.0
20210623025017 46 0.0 1.0 0.00 0.00 0.00 89 1024.9
20210623024017 47 0.0 1.0 0.00 0.00 0.00 89 1024.8
20210623023017 47 0.0 1.0 0.00 0.00 0.00 89 1025.0
20210623022017 46 0.0 1.0 0.00 0.00 0.00 89 1024.9
20210623021018 46 270 1.0 3.0 0.00 0.00 0.00 89 1024.9
20210623020018 46 270 2.0 3.0 0.00 0.00 0.00 88 1024.9
20210623015017 46 270 1.0 2.0 0.00 0.00 0.00 88 1024.9
20210623014017 47 0.0 1.0 0.00 0.00 0.00 88 1024.9
20210623013017 47 270 1.0 2.0 0.00 0.00 0.00 88 1024.9
20210623012017 47 270 3.0 4.0 0.00 0.00 0.00 88 1024.9
20210623011017 47 0.0 0.0 0.00 0.00 0.00 87 1024.9
20210623010017 47 0.0 0.0 0.00 0.00 0.00 87 1025.0
20210623005017 48 0.0 0.0 0.00 0.00 0.00 87 1024.9
20210623004017 48 0.0 0.0 0.00 0.00 0.00 87 1025.0
20210623003017 48 0.0 0.0 0.00 0.00 0.00 86 1025.0
20210623002017 48 0.0 2.0 0.00 0.00 0.00 86 1025.0
20210623001017 49 270 1.0 2.0 0.00 0.00 0.00 85 1025.1
20210623000017 49 0.0 3.0 0.00 0.00 0.00 85 1025.3
20210622235017 49 0.0 1.0 0.00 0.00 0.00 84 1025.0
20210622234016 50 0.0 1.0 0.00 0.01 0.00 84 1025.1
20210622233017 50 270 1.0 2.0 0.00 0.01 0.00 83 1025.1
20210622232017 50 0.0 1.0 0.00 0.01 0.00 83 1025.1
20210622231017 51 0.0 2.0 0.00 0.02 0.00 82 1025.1
20210622230017 52 270 1.0 2.0 0.00 0.02 0.02 80 1025.1
20210622225017 52 270 1.0 2.0 0.00 0.02 0.02 79 1025.0
20210622224017 53 270 1.0 3.0 0.00 0.02 0.02 78 1025.0
20210622223017 53 270 2.0 4.0 0.00 0.03 0.02 77 1025.0
20210622222017 53 315 2.0 4.0 0.00 0.03 0.02 77 1024.9
20210622221017 54 315 1.0 2.0 0.00 0.04 0.02 77 1024.9
20210622220017 54 315 2.0 3.0 0.00 0.04 0.02 76 1024.9
20210622215017 55 315 2.0 3.0 0.00 0.04 0.02 75 1024.9
20210622214018 55 0.0 1.0 0.00 0.04 0.02 74 1024.9
20210622213017 55 315 2.0 3.0 0.00 0.04 0.02 73 1024.8
20210622212017 56 338 2.0 3.0 0.00 0.04 0.02 72 1024.8
20210622211017 57 0.0 0.0 0.00 0.04 0.02 70 1024.8
20210622210017 57 338 1.0 2.0 0.00 0.04 0.02 69 1024.7
20210622205017 58 338 1.0 2.0 0.00 0.04 0.02 67 1024.7
20210622204018 58 338 1.0 2.0 0.00 0.04 0.02 65 1024.5
20210622203017 59 338 2.0 3.0 0.00 0.04 0.02 64 1024.5
20210622202017 59 338 2.0 3.0 0.00 0.04 0.02 63 1024.3
20210622201017 60 23 1.0 3.0 0.00 0.04 0.02 61 1024.1
20210622200017 61 0 3.0 5.0 0.00 0.04 0.02 59 1024.2
20210622195017 61 45 2.0 5.0 0.00 0.04 0.02 58 1024.2
20210622194017 61 45 3.0 7.0 0.00 0.04 0.02 57 1024.0
20210622193018 62 23 5.0 8.0 0.00 0.04 0.02 56 1024.1
20210622192017 62 23 8.0 11.0 0.00 0.04 0.02 54 1024.0
20210622191017 63 0 6.0 11.0 0.00 0.04 0.02 57 1023.9
20210622190016 63 338 6.0 10.0 0.00 0.04 0.02 56 1023.8
20210622185017 62 0 7.0 12.0 0.00 0.04 0.02 56 1023.9
20210622184017 62 0 7.0 12.0 0.00 0.04 0.02 56 1023.8
20210622183017 63 0 7.0 12.0 0.00 0.04 0.02 56 1023.7
20210622182017 63 0 8.0 15.0 0.00 0.04 0.02 55 1023.8
20210622181017 64 0 9.0 14.0 0.00 0.04 0.02 54 1023.6
20210622180016 64 0 8.0 13.0 0.00 0.04 0.02 54 1023.7
20210622175017 66 0 9.0 15.0 0.00 0.04 0.02 52 1023.5
20210622174016 66 0 8.0 12.0 0.00 0.04 0.02 51 1023.5
20210622173017 66 23 8.0 14.0 0.00 0.04 0.02 52 1023.5
20210622172017 65 0 10.0 15.0 0.00 0.04 0.02 51 1023.4
20210622171016 66 338 9.0 16.0 0.00 0.04 0.02 48 1023.4
20210622170016 65 0 10.0 14.0 0.00 0.04 0.02 51 1023.3
20210622165016 65 0 11.0 16.0 0.00 0.04 0.02 50 1023.4
20210622164016 64 0 9.0 18.0 0.00 0.04 0.02 53 1023.4
20210622163017 64 23 10.0 17.0 0.00 0.04 0.02 53 1023.3
20210622162016 64 338 12.0 19.0 0.00 0.04 0.02 51 1023.3
20210622161017 64 0 10.0 16.0 0.00 0.04 0.02 54 1023.2
20210622160016 64 0 10.0 20.0 0.00 0.04 0.02 53 1023.1